STARLINK-32290, 60359

Orbit data source: Space-Track

STARLINK-32290, 60359 is a payload satellite owned by SpaceX/Seattle (US) in LEO that was launched on Sun, 04 Aug 2024 UTC via an FALCON 9 launch vehicle from the Air Force Western Test Range (AFWTR). Payload-class satellites include a variety of spacecraft equipped with specific instruments for various scientific and technological missions. These include communications satellites like Starlink; space stations such as the ISS; scientific satellites like the Hubble; Earth observation satellites from companies like Planet Labs, Umbra, and HawkEye 360; GPS; miniature CubeSats for education and research; and military/defense satellites.

Loading next visibility...
Identifier
60359, 2024-138E
Orbit
LEO
Country
Flag of USUS
Related business
Manufacturer
SpaceX/Seattle
Mission
Operational Commercial Communications
Bus & Motor
STARLINK V2M, Unknown motor
Mass
730 kg wet, ~700 kg dry
Launch date (UTC)
2024-08-04 (1 year ago)
Launch vehicle
FALCON 9
Launch site
Air Force Western Test Range (AFWTR)
Object type
Payload
Rocket body
Debris
Shape & HBR
Box + 2 Pan, 14.5 m
Radar Cross Section
33.884 m², Large (>1 m²)

Expand to show TLE details & history
Last TLE update: 7 hours ago

TLE from 7 hours ago
0 STARLINK-32290
1 60359U 24138E   25258.58523033  .00004845  00000-0  17562-3 0  9997
2 60359  53.1608  43.2813 0001109  87.5735 272.5392 15.30196253 44840
Epoch: 2025-09-15T14:02Z
TLE epoch observation values (Epoch: 2025-09-15T14:02:43.9Z)
Latitude
-0.00008°
Longitude
-162.18945°
Altitude
476.092 km
Speed
7.629 km/s
True Right ascension
02h 53m 07s
True Declination
0° 00' 00"
Sunlit
Object was in full shadow at epoch
Visualization orbit readout
Latitude
Unknown
Longitude
Unknown
Altitude
Unknown
Speed
Unknown
Apparent Right ascension
Unknown
Apparent Declination
Unknown
Sunlit
N/A
Visualization observer readout
Local Sidereal Time
13:55:15
Azimuth
Unknown
Elevation
Unknown
Doppler factor
Unknown
Orbital elements
Apogee altitude
476.243 km
Perigee altitude
474.722 km
Semi-major axis
6,853.62 km
Eccentricity
0.00011
Inclination
53.1608°
RAAN
43.2813°
Arg. of periapsis
87.5735°
True anomaly
272.5265°
Mean anomaly
272.5392°
Eccentric anomaly
272.53285°
Mean motion
3.82528 °/min
Orbital period
94.11 mins
BSTAR
0.00017562
Loading maneuver chart data...
Computing Atmospheric mass density...
Loading historical data...
Loading historical data...
Loading historical data...
Loading historical data...
Loading historical data...
Loading historical data...
Loading historical data...

Documentation

Showing up to 5 results
|